STARLINK-32488 (62125 NORAD) Tracking and Keplerian Element Data

This shows tracking and keplerian element data for the satellite.

Feedback or suggestion? Click here.




ElementValue
Catalog62125
NameSTARLINK-32488
Epoch Orbit1165
Epoch Day34.95603754
Epoch Year2025
RAAN229.2478
Inclination43.0005
Eccentricity0.000161
Argument of Perigee271.9673
Mean Anonmoly88.0999
Mean Motion15.40712186
Decay Rate-3.463E-05
L11 62125U 24222M 25034.95603754 -.00003463 00000+0 -75649-4 0 9993
L22 62125 43.0005 229.2478 0001610 271.9673 88.0999 15.40712186 11658



Live tracking and technical data element details for STARLINK-32488 (NORAD 62125). STARLINK-32488 can be tracked NOW for your location showing map with azimuth and elevation plus other details from your city location.







IsCatalogInMostPopularTable: catalog: 62125, numindb: 18
Update: records affected: 1



GetName: 62125 STARLINK-32488

Hit Count: updated at: Sun, 18 May 2025 22:34:02 GMT